Location: Barruelo
(41.2448°N, 3.8231°W)
Time: 08:56:10
(UTC+00:00)

Cosmos 2227 Rocket - Pass Details

Date: 21 March 2026
Orbit: 836 x 845 km, 71.0° (Epoch: 19 April)

Event Time Altitude Azimuth Distance (km) Brightness Sun altitude
Rises 20:15:23 0° 346° (NNW) 3,414 5.8 -20.5°
Reaches altitude 10° 20:18:23 10° 1° (N) 2,475 4.9 -21.0°
Enters shadow 20:22:48 23° 52° (NE) 1,726 3.5 -21.8°
